Hourly Weather Natitingou

Today, 24 September, Thursday

Time Temperature Precipitation Wind Pressure Humidity
00:00 +24°C° 0.7 mm 1 mps 719 mmHg 96%
01:00 +24°C° 0.4 mm 1 mps 719 mmHg 97%
02:00 +23°C° 0.4 mm 1 mps 718 mmHg 97%
03:00 +23°C° 0.4 mm 1 mps 718 mmHg 98%
04:00 +23°C° 0 mm 2 mps 718 mmHg 97%
05:00 +23°C° 0 mm 2 mps 718 mmHg 97%
06:00 +23°C° 0 mm 2 mps 719 mmHg 97%
07:00 +25°C° 0 mm 2 mps 719 mmHg 92%
08:00 +26°C° 0 mm 2 mps 719 mmHg 86%
09:00 +28°C° 0 mm 3 mps 720 mmHg 81%
10:00 +29°C° 0 mm 3 mps 719 mmHg 75%
11:00 +30°C° 0 mm 2 mps 719 mmHg 69%
12:00 +32°C° 0 mm 2 mps 719 mmHg 64%
13:00 +32°C° 0 mm 2 mps 718 mmHg 63%
14:00 +32°C° 0 mm 1 mps 718 mmHg 62%
15:00 +32°C° 0 mm 1 mps 717 mmHg 62%
16:00 +30°C° 0.5 mm 1 mps 717 mmHg 70%
17:00 +28°C° 0.5 mm 1 mps 717 mmHg 79%
18:00 +27°C° 0.5 mm 1 mps 717 mmHg 88%
19:00 +26°C° 1.1 mm 1 mps 718 mmHg 89%
20:00 +23°C° 1.1 mm 0 mps 718 mmHg 90%
21:00 +23°C° 1.1 mm 0 mps 718 mmHg 91%
22:00 +23°C° 0.5 mm 0 mps 718 mmHg 91%
23:00 +25°C° 0.5 mm 1 mps 718 mmHg 91%

Tomorrow, 25 September, Friday

Time Temperature Precipitation Wind Pressure Humidity
00:00 +25°C° 0.5 mm 1 mps 718 mmHg 91%
01:00 +24°C° 0 mm 1 mps 718 mmHg 92%
02:00 +24°C° 0 mm 1 mps 717 mmHg 93%
03:00 +24°C° 0 mm 1 mps 717 mmHg 93%
04:00 +24°C° 0 mm 1 mps 718 mmHg 94%
05:00 +24°C° 0 mm 1 mps 718 mmHg 95%
06:00 +23°C° 0 mm 1 mps 718 mmHg 96%
07:00 +25°C° 0.3 mm 2 mps 719 mmHg 90%
08:00 +27°C° 0.3 mm 2 mps 720 mmHg 84%
09:00 +28°C° 0.3 mm 3 mps 720 mmHg 78%
10:00 +28°C° 0.1 mm 3 mps 720 mmHg 76%
11:00 +28°C° 0.1 mm 4 mps 719 mmHg 74%
12:00 +29°C° 0.1 mm 4 mps 719 mmHg 72%
13:00 +29°C° 0 mm 3 mps 718 mmHg 70%
14:00 +29°C° 0 mm 3 mps 718 mmHg 68%
15:00 +29°C° 0 mm 2 mps 717 mmHg 67%
16:00 +28°C° 0 mm 1 mps 717 mmHg 71%
17:00 +27°C° 0 mm 1 mps 717 mmHg 75%
18:00 +24°C° 0 mm 0 mps 717 mmHg 80%
19:00 +23°C° 0 mm 0 mps 718 mmHg 81%
20:00 +23°C° 0 mm 0 mps 718 mmHg 83%
21:00 +23°C° 0 mm 0 mps 718 mmHg 85%
22:00 +24°C° 0 mm 1 mps 718 mmHg 86%
23:00 +24°C° 0 mm 1 mps 718 mmHg 87%

Day after tomorrow, 26 September, Saturday

Time Temperature Precipitation Wind Pressure Humidity
00:00 +24°C° 0 mm 1 mps 718 mmHg 88%
01:00 +24°C° 0 mm 1 mps 718 mmHg 89%
02:00 +23°C° 0 mm 1 mps 717 mmHg 90%
03:00 +23°C° 0 mm 1 mps 717 mmHg 91%
04:00 +23°C° 0 mm 1 mps 717 mmHg 92%
05:00 +23°C° 0 mm 1 mps 717 mmHg 92%
06:00 +23°C° 0 mm 2 mps 717 mmHg 92%
07:00 +24°C° 0 mm 2 mps 718 mmHg 88%
08:00 +25°C° 0 mm 2 mps 718 mmHg 84%
09:00 +26°C° 0 mm 2 mps 719 mmHg 80%
10:00 +27°C° 0.4 mm 2 mps 718 mmHg 77%
11:00 +28°C° 0.4 mm 2 mps 718 mmHg 74%
12:00 +29°C° 0.4 mm 2 mps 718 mmHg 71%
13:00 +29°C° 0.3 mm 2 mps 717 mmHg 71%
14:00 +30°C° 0.3 mm 2 mps 716 mmHg 70%
15:00 +30°C° 0.3 mm 2 mps 715 mmHg 69%
16:00 +28°C° 0.1 mm 2 mps 715 mmHg 75%
17:00 +27°C° 0.1 mm 2 mps 715 mmHg 80%
18:00 +26°C° 0.1 mm 1 mps 715 mmHg 86%
19:00 +25°C° 0 mm 1 mps 716 mmHg 87%
20:00 +24°C° 0 mm 1 mps 716 mmHg 88%
21:00 +22°C° 0 mm 0 mps 717 mmHg 89%
22:00 +24°C° 0 mm 1 mps 717 mmHg 89%
23:00 +24°C° 0 mm 1 mps 717 mmHg 88%

27 September, Sunday

Time Temperature Precipitation Wind Pressure Humidity
00:00 +23°C° 0 mm 1 mps 717 mmHg 88%
01:00 +23°C° 0 mm 1 mps 717 mmHg 88%
02:00 +23°C° 0 mm 1 mps 717 mmHg 88%
03:00 +23°C° 0 mm 1 mps 716 mmHg 89%
04:00 +23°C° 0 mm 1 mps 717 mmHg 90%
05:00 +23°C° 0 mm 1 mps 717 mmHg 91%
06:00 +22°C° 0 mm 1 mps 717 mmHg 92%
07:00 +24°C° 0 mm 1 mps 717 mmHg 87%
08:00 +26°C° 0 mm 2 mps 718 mmHg 82%
09:00 +28°C° 0 mm 2 mps 718 mmHg 77%
10:00 +29°C° 0 mm 3 mps 718 mmHg 73%
11:00 +30°C° 0 mm 3 mps 718 mmHg 69%
12:00 +31°C° 0 mm 3 mps 717 mmHg 65%
13:00 +31°C° 0 mm 3 mps 717 mmHg 65%
14:00 +31°C° 0 mm 2 mps 716 mmHg 65%
15:00 +31°C° 0 mm 2 mps 715 mmHg 65%
16:00 +29°C° 0.4 mm 2 mps 715 mmHg 73%
17:00 +28°C° 0.4 mm 2 mps 715 mmHg 80%
18:00 +26°C° 0.4 mm 1 mps 715 mmHg 88%
19:00 +26°C° 0.1 mm 1 mps 716 mmHg 90%
20:00 +25°C° 0.1 mm 1 mps 716 mmHg 93%
21:00 +25°C° 0.1 mm 1 mps 717 mmHg 95%
22:00 +24°C° 0.3 mm 1 mps 717 mmHg 95%
23:00 +24°C° 0.3 mm 2 mps 717 mmHg 96%

28 September, Monday

Time Temperature Precipitation Wind Pressure Humidity
00:00 +24°C° 0.3 mm 2 mps 717 mmHg 96%
01:00 +24°C° 1.6 mm 1 mps 717 mmHg 96%
02:00 +24°C° 1.6 mm 1 mps 717 mmHg 96%
03:00 +23°C° 1.6 mm 1 mps 717 mmHg 96%
04:00 +23°C° 0.1 mm 1 mps 717 mmHg 96%
05:00 +23°C° 0.1 mm 1 mps 717 mmHg 97%
06:00 +23°C° 0.1 mm 1 mps 717 mmHg 97%
07:00 +24°C° 0 mm 1 mps 717 mmHg 92%
08:00 +26°C° 0 mm 2 mps 718 mmHg 88%
09:00 +27°C° 0 mm 2 mps 718 mmHg 83%
10:00 +29°C° 0 mm 2 mps 718 mmHg 75%
11:00 +30°C° 0 mm 2 mps 717 mmHg 67%
12:00 +32°C° 0 mm 1 mps 717 mmHg 60%
13:00 +32°C° 0 mm 2 mps 716 mmHg 60%
14:00 +32°C° 0 mm 2 mps 716 mmHg 60%
15:00 +32°C° 0 mm 2 mps 715 mmHg 60%
16:00 +30°C° 0.6 mm 2 mps 715 mmHg 68%
17:00 +28°C° 0.6 mm 1 mps 715 mmHg 75%
18:00 +27°C° 0.6 mm 1 mps 715 mmHg 82%
19:00 +26°C° 0.1 mm 1 mps 716 mmHg 83%
20:00 +24°C° 0.1 mm 0 mps 716 mmHg 85%
21:00 +23°C° 0.1 mm 0 mps 717 mmHg 86%
22:00 +23°C° 0 mm 0 mps 717 mmHg 87%
23:00 +25°C° 0 mm 1 mps 716 mmHg 88%

29 September, Tuesday

Time Temperature Precipitation Wind Pressure Humidity
00:00 +25°C° 0 mm 1 mps 716 mmHg 89%
01:00 +24°C° 0.4 mm 1 mps 716 mmHg 89%
02:00 +24°C° 0.4 mm 1 mps 716 mmHg 90%
03:00 +24°C° 0.4 mm 1 mps 716 mmHg 91%
04:00 +24°C° 0 mm 1 mps 716 mmHg 91%
05:00 +24°C° 0 mm 1 mps 716 mmHg 91%
06:00 +24°C° 0 mm 1 mps 716 mmHg 90%
07:00 +25°C° 0 mm 1 mps 717 mmHg 89%
08:00 +26°C° 0 mm 1 mps 718 mmHg 87%
09:00 +27°C° 0 mm 1 mps 718 mmHg 85%
10:00 +28°C° 0 mm 1 mps 718 mmHg 81%
11:00 +28°C° 0 mm 1 mps 718 mmHg 78%
12:00 +29°C° 0 mm 2 mps 717 mmHg 74%
13:00 +29°C° 0.6 mm 1 mps 717 mmHg 74%
14:00 +29°C° 0.6 mm 1 mps 716 mmHg 74%
15:00 +29°C° 0.6 mm 1 mps 716 mmHg 74%
16:00 +28°C° 0.7 mm 1 mps 716 mmHg 78%
17:00 +25°C° 0.7 mm 0 mps 716 mmHg 82%
18:00 +24°C° 0.7 mm 0 mps 716 mmHg 87%
19:00 +23°C° 0 mm 0 mps 716 mmHg 88%
20:00 +23°C° 0 mm 0 mps 716 mmHg 90%
21:00 +25°C° 0 mm 1 mps 717 mmHg 91%
22:00 +24°C° 0 mm 1 mps 717 mmHg 92%
23:00 +24°C° 0 mm 1 mps 717 mmHg 94%
Show more